| time (UTC) | temp F | wind direction | speed MPH | gust MPH | rain 1hr in | rain 24hr in | rain mn in | humidity % | barometer mb |
| 20260506143118 | 82 | 318 | 5.0 | 0.0 | 0.00 | 0.00 | 0.01 | 41 | 1013.9 |
| 20260506143025 | 82 | 342 | 5.0 | 0.0 | 0.00 | 0.00 | 0.01 | 39 | 1014.0 |
| 20260506142518 | 83 | 49 | 4.0 | 0.0 | 0.00 | 0.00 | 0.01 | 41 | 1013.8 |
| 20260506142017 | 83 | 37 | 3.0 | 0.0 | 0.00 | 0.00 | 0.01 | 39 | 1013.9 |
| 20260506141954 | 83 | 20 | 2.0 | 6.0 | 0.00 | 0.01 | 0.01 | 39 | 1013.6 |
| 20260506141533 | 82 | 65 | 3.0 | 0.0 | 0.00 | 0.00 | 0.01 | 39 | 1013.9 |
| 20260506141510 | 82 | 68 | 3.0 | 0.0 | 0.00 | 0.00 | 0.01 | 38 | 1014.0 |
| 20260506141012 | 83 | 34 | 5.0 | 0.0 | 0.00 | 0.00 | 0.01 | 40 | 1013.9 |
| 20260506140953 | 82 | 37 | 2.0 | 9.0 | 0.00 | 0.01 | 0.01 | 40 | 1013.6 |
| 20260506140532 | 82 | 42 | 6.0 | 0.0 | 0.00 | 0.00 | 0.01 | 39 | 1014.0 |
| 20260506140054 | 82 | 61 | 7.0 | 0.0 | 0.00 | 0.00 | 0.01 | 40 | 1014.0 |
| 20260506140022 | 83 | 45 | 7.0 | 0.0 | 0.00 | 0.00 | 0.01 | 40 | 1014.0 |
| 20260506135523 | 83 | 43 | 6.0 | 0.0 | 0.00 | 0.00 | 0.01 | 41 | 1014.0 |
| 20260506135017 | 83 | 67 | 6.0 | 0.0 | 0.00 | 0.00 | 0.01 | 40 | 1014.2 |
| 20260506134613 | 82 | 86 | 6.0 | 0.0 | 0.00 | 0.00 | 0.01 | 40 | 1014.1 |
| 20260506134535 | 82 | 93 | 5.0 | 0.0 | 0.00 | 0.00 | 0.01 | 42 | 1014.1 |
| 20260506134014 | 82 | 51 | 6.0 | 0.0 | 0.00 | 0.00 | 0.01 | 42 | 1014.2 |
| 20260506133954 | 82 | 68 | 6.0 | 10.0 | 0.00 | 0.01 | 0.01 | 42 | 1013.9 |
| 20260506133554 | 82 | 80 | 5.0 | 0.0 | 0.00 | 0.00 | 0.01 | 41 | 1014.1 |
| 20260506133053 | 81 | 49 | 6.0 | 0.0 | 0.00 | 0.00 | 0.01 | 42 | 1014.1 |
| 20260506133026 | 82 | 78 | 6.0 | 0.0 | 0.00 | 0.00 | 0.01 | 42 | 1014.2 |
| 20260506132954 | 82 | 46 | 6.0 | 12.0 | 0.00 | 0.01 | 0.01 | 43 | 1013.8 |
| 20260506132524 | 82 | 37 | 6.0 | 0.0 | 0.00 | 0.00 | 0.01 | 41 | 1014.3 |
| 20260506132021 | 81 | 68 | 6.0 | 0.0 | 0.00 | 0.00 | 0.01 | 42 | 1014.4 |
| 20260506131612 | 81 | 68 | 7.0 | 0.0 | 0.00 | 0.00 | 0.01 | 41 | 1014.3 |
| 20260506131520 | 81 | 77 | 7.0 | 0.0 | 0.00 | 0.00 | 0.01 | 41 | 1014.5 |
| 20260506131041 | 81 | 55 | 7.0 | 0.0 | 0.00 | 0.00 | 0.01 | 42 | 1014.7 |
| 20260506130954 | 81 | 66 | 8.0 | 12.0 | 0.00 | 0.01 | 0.01 | 42 | 1014.3 |
| 20260506130512 | 81 | 66 | 7.0 | 0.0 | 0.00 | 0.00 | 0.01 | 42 | 1014.7 |
| 20260506130111 | 80 | 71 | 8.0 | 0.0 | 0.00 | 0.00 | 0.01 | 42 | 1014.6 |
| 20260506130011 | 81 | 49 | 9.0 | 0.0 | 0.00 | 0.00 | 0.01 | 40 | 1014.7 |
| 20260506125954 | 81 | 50 | 7.0 | 12.0 | 0.00 | 0.01 | 0.01 | 42 | 1014.3 |
| 20260506125520 | 81 | 63 | 9.0 | 0.0 | 0.00 | 0.00 | 0.01 | 41 | 1014.7 |
| 20260506125021 | 81 | 65 | 8.0 | 0.0 | 0.00 | 0.00 | 0.01 | 41 | 1014.7 |
| 20260506124955 | 81 | 61 | 9.0 | 13.0 | 0.00 | 0.01 | 0.01 | 41 | 1014.5 |
| 20260506124528 | 80 | 27 | 9.0 | 0.0 | 0.00 | 0.00 | 0.01 | 41 | 1014.7 |
| 20260506124513 | 81 | 64 | 9.0 | 0.0 | 0.00 | 0.00 | 0.01 | 41 | 1014.8 |
| 20260506124013 | 81 | 71 | 10.0 | 0.0 | 0.00 | 0.00 | 0.01 | 40 | 1014.9 |
| 20260506123954 | 81 | 76 | 10.0 | 14.0 | 0.00 | 0.01 | 0.01 | 40 | 1014.4 |
| 20260506123530 | 81 | 63 | 10.0 | 0.0 | 0.00 | 0.00 | 0.01 | 38 | 1014.8 |
| 20260506123047 | 81 | 85 | 10.0 | 0.0 | 0.00 | 0.00 | 0.01 | 38 | 1014.9 |
| 20260506123022 | 81 | 90 | 10.0 | 0.0 | 0.00 | 0.00 | 0.01 | 38 | 1014.8 |
| 20260506122955 | 81 | 82 | 9.0 | 14.0 | 0.00 | 0.01 | 0.01 | 38 | 1014.6 |
| 20260506122522 | 82 | 53 | 9.0 | 0.0 | 0.00 | 0.00 | 0.01 | 39 | 1014.9 |
| 20260506122015 | 82 | 77 | 9.0 | 0.0 | 0.00 | 0.00 | 0.01 | 39 | 1014.9 |
| 20260506121954 | 82 | 92 | 9.0 | 13.0 | 0.00 | 0.01 | 0.01 | 41 | 1014.6 |
| 20260506121606 | 81 | 94 | 8.0 | 0.0 | 0.00 | 0.00 | 0.01 | 41 | 1014.9 |
| 20260506121536 | 81 | 64 | 8.0 | 0.0 | 0.00 | 0.00 | 0.01 | 40 | 1015.0 |
| 20260506121015 | 81 | 63 | 8.0 | 0.0 | 0.00 | 0.00 | 0.01 | 43 | 1015.0 |
| 20260506120954 | 81 | 109 | 5.0 | 13.0 | 0.00 | 0.01 | 0.01 | 42 | 1014.7 |
| 20260506120509 | 82 | 102 | 7.0 | 0.0 | 0.00 | 0.00 | 0.01 | 41 | 1015.1 |
| 20260506120108 | 81 | 111 | 5.0 | 0.0 | 0.00 | 0.00 | 0.01 | 43 | 1015.0 |
| 20260506120047 | 81 | 101 | 5.0 | 0.0 | 0.00 | 0.00 | 0.01 | 44 | 1015.3 |
| 20260506115955 | 81 | 71 | 5.0 | 12.0 | 0.01 | 0.01 | 0.01 | 42 | 1014.7 |
| 20260506115527 | 81 | 127 | 4.0 | 0.0 | 0.00 | 0.00 | 0.01 | 42 | 1015.1 |
| 20260506115021 | 81 | 26 | 6.0 | 0.0 | 0.00 | 0.00 | 0.01 | 42 | 1015.4 |
| 20260506114954 | 81 | 48 | 4.0 | 12.0 | 0.01 | 0.01 | 0.01 | 43 | 1014.9 |
| 20260506114604 | 80 | 67 | 6.0 | 0.0 | 0.00 | 0.00 | 0.01 | 43 | 1015.3 |
| 20260506114540 | 81 | 54 | 6.0 | 0.0 | 0.00 | 0.00 | 0.01 | 42 | 1015.4 |
| 20260506114017 | 81 | 39 | 5.0 | 0.0 | 0.00 | 0.00 | 0.01 | 42 | 1015.3 |
| 20260506113954 | 81 | 52 | 5.0 | 12.0 | 0.01 | 0.01 | 0.01 | 43 | 1014.9 |
| 20260506113509 | 80 | 49 | 4.0 | 0.0 | 0.00 | 0.00 | 0.01 | 41 | 1015.4 |
| 20260506113100 | 80 | 98 | 3.0 | 0.0 | 0.00 | 0.00 | 0.01 | 43 | 1015.2 |
| 20260506113026 | 80 | 78 | 3.0 | 0.0 | 0.00 | 0.00 | 0.01 | 43 | 1015.3 |
| 20260506112526 | 80 | 105 | 3.0 | 0.0 | 0.00 | 0.00 | 0.01 | 38 | 1015.4 |
| 20260506112019 | 80 | 86 | 3.0 | 0.0 | 0.00 | 0.00 | 0.01 | 40 | 1015.6 |
| 20260506111618 | 79 | 84 | 2.0 | 0.0 | 0.00 | 0.00 | 0.01 | 41 | 1015.4 |
| 20260506111517 | 80 | 17 | 2.0 | 0.0 | 0.00 | 0.00 | 0.01 | 40 | 1015.6 |
| 20260506111011 | 79 | 43 | 2.0 | 0.0 | 0.00 | 0.00 | 0.01 | 38 | 1015.8 |
| 20260506110955 | 79 | 31 | 2.0 | 6.0 | 0.01 | 0.01 | 0.01 | 40 | 1015.3 |
| 20260506110510 | 79 | 26 | 4.0 | 0.0 | 0.00 | 0.00 | 0.00 | 38 | 1015.6 |
| 20260506110029 | 79 | 31 | 5.0 | 0.0 | 0.00 | 0.00 | 0.00 | 38 | 1015.8 |
| 20260506110008 | 79 | 31 | 6.0 | 0.0 | 0.00 | 0.00 | 0.00 | 38 | 1015.7 |
| 20260506105954 | 79 | 88 | 6.0 | 10.0 | 0.00 | 0.00 | 0.00 | 37 | 1015.3 |
| 20260506105520 | 79 | 90 | 4.0 | 0.0 | 0.00 | 0.00 | 0.00 | 39 | 1015.8 |
| 20260506105037 | 79 | 103 | 3.0 | 0.0 | 0.00 | 0.00 | 0.00 | 38 | 1015.8 |
| 20260506104955 | 79 | 88 | 3.0 | 8.0 | 0.00 | 0.00 | 0.00 | 38 | 1015.4 |
| 20260506104624 | 78 | 89 | 4.0 | 0.0 | 0.00 | 0.00 | 0.00 | 39 | 1015.6 |
| 20260506104516 | 78 | 110 | 4.0 | 0.0 | 0.00 | 0.00 | 0.00 | 39 | 1015.8 |
| 20260506104024 | 78 | 35 | 4.0 | 0.0 | 0.00 | 0.00 | 0.00 | 41 | 1015.9 |
| 20260506103954 | 78 | 68 | 4.0 | 7.0 | 0.00 | 0.00 | 0.00 | 41 | 1015.5 |
| 20260506103521 | 78 | 36 | 4.0 | 0.0 | 0.00 | 0.00 | 0.00 | 41 | 1015.9 |
| 20260506103039 | 77 | 106 | 3.0 | 0.0 | 0.00 | 0.00 | 0.00 | 39 | 1016.0 |
| 20260506103013 | 77 | 89 | 3.0 | 0.0 | 0.00 | 0.00 | 0.00 | 40 | 1016.0 |
| 20260506102954 | 77 | 101 | 5.0 | 7.0 | 0.00 | 0.00 | 0.00 | 41 | 1015.6 |
| 20260506102512 | 77 | 76 | 3.0 | 0.0 | 0.00 | 0.00 | 0.00 | 43 | 1016.2 |
| 20260506102032 | 77 | 94 | 3.0 | 0.0 | 0.00 | 0.00 | 0.00 | 42 | 1016.1 |
| 20260506101552 | 77 | 46 | 4.0 | 0.0 | 0.00 | 0.00 | 0.00 | 42 | 1016.2 |
| 20260506101525 | 77 | 43 | 4.0 | 0.0 | 0.00 | 0.00 | 0.00 | 42 | 1016.2 |
| 20260506101022 | 77 | 126 | 3.0 | 0.0 | 0.00 | 0.00 | 0.00 | 42 | 1016.2 |
| 20260506100954 | 77 | 111 | 5.0 | 7.0 | 0.00 | 0.00 | 0.00 | 44 | 1016.0 |
| 20260506100514 | 77 | 104 | 3.0 | 0.0 | 0.00 | 0.00 | 0.00 | 44 | 1016.5 |
| 20260506100109 | 76 | 88 | 3.0 | 0.0 | 0.00 | 0.00 | 0.00 | 45 | 1016.4 |
| 20260506100033 | 76 | 101 | 3.0 | 0.0 | 0.00 | 0.00 | 0.00 | 44 | 1016.6 |
| 20260506095954 | 76 | 74 | 4.0 | 8.0 | 0.00 | 0.00 | 0.00 | 44 | 1016.1 |
| 20260506095510 | 76 | 5 | 3.0 | 0.0 | 0.00 | 0.00 | 0.00 | 46 | 1016.6 |
| 20260506095020 | 76 | 101 | 3.0 | 0.0 | 0.00 | 0.00 | 0.00 | 45 | 1016.4 |
| 20260506094954 | 76 | 98 | 4.0 | 7.0 | 0.00 | 0.00 | 0.00 | 45 | 1016.2 |
| 20260506094624 | 75 | 98 | 2.0 | 0.0 | 0.00 | 0.00 | 0.00 | 44 | 1016.5 |
| 20260506094521 | 75 | 39 | 2.0 | 0.0 | 0.00 | 0.00 | 0.00 | 44 | 1016.5 |
| 20260506094011 | 75 | 24 | 3.0 | 0.0 | 0.00 | 0.00 | 0.00 | 45 | 1016.6 |
| 20260506093955 | 75 | 25 | 2.0 | 8.0 | 0.00 | 0.00 | 0.00 | 46 | 1016.3 |
| 20260506093510 | 76 | 111 | 4.0 | 0.0 | 0.00 | 0.00 | 0.00 | 45 | 1016.6 |
| 20260506093117 | 75 | 82 | 4.0 | 0.0 | 0.00 | 0.00 | 0.00 | 47 | 1016.5 |
| 20260506093024 | 75 | 92 | 3.0 | 0.0 | 0.00 | 0.00 | 0.00 | 49 | 1016.6 |
| 20260506092955 | 75 | 85 | 3.0 | 8.0 | 0.00 | 0.00 | 0.00 | 49 | 1016.2 |
| 20260506092517 | 74 | 85 | 3.0 | 0.0 | 0.00 | 0.00 | 0.00 | 49 | 1016.6 |
| 20260506092035 | 75 | 47 | 3.0 | 0.0 | 0.00 | 0.00 | 0.00 | 47 | 1016.6 |
| 20260506091954 | 74 | 47 | 3.0 | 7.0 | 0.00 | 0.00 | 0.00 | 46 | 1016.2 |
| 20260506091610 | 74 | 57 | 3.0 | 0.0 | 0.00 | 0.00 | 0.00 | 49 | 1016.6 |
| 20260506091513 | 74 | 86 | 2.0 | 0.0 | 0.00 | 0.00 | 0.00 | 49 | 1016.6 |
| 20260506091032 | 74 | 33 | 2.0 | 0.0 | 0.00 | 0.00 | 0.00 | 47 | 1016.7 |
| 20260506090955 | 74 | 38 | 2.0 | 5.0 | 0.00 | 0.00 | 0.00 | 47 | 1016.3 |
| 20260506090523 | 73 | 68 | 2.0 | 0.0 | 0.00 | 0.00 | 0.00 | 49 | 1016.7 |
| 20260506090021 | 73 | 108 | 3.0 | 0.0 | 0.00 | 0.00 | 0.00 | 50 | 1016.6 |
| 20260506090002 | 73 | 108 | 3.0 | 0.0 | 0.00 | 0.00 | 0.00 | 47 | 1016.6 |
| 20260506085512 | 73 | 97 | 2.0 | 0.0 | 0.00 | 0.00 | 0.00 | 49 | 1016.6 |
| 20260506085011 | 72 | 128 | 2.0 | 0.0 | 0.00 | 0.00 | 0.00 | 51 | 1016.7 |
| 20260506084955 | 72 | 127 | 1.0 | 3.0 | 0.00 | 0.00 | 0.00 | 50 | 1016.3 |
| 20260506084543 | 72 | 92 | 2.0 | 0.0 | 0.00 | 0.00 | 0.00 | 49 | 1016.6 |
| 20260506084522 | 72 | 63 | 2.0 | 0.0 | 0.00 | 0.00 | 0.00 | 49 | 1016.6 |
| 20260506084017 | 72 | 112 | 2.0 | 0.0 | 0.00 | 0.00 | 0.00 | 49 | 1016.7 |
| 20260506083955 | 71 | 104 | 1.0 | 3.0 | 0.00 | 0.00 | 0.00 | 49 | 1016.3 |
| 20260506083532 | 71 | 69 | 2.0 | 0.0 | 0.00 | 0.00 | 0.00 | 50 | 1016.8 |
| 20260506083047 | 71 | 342 | 2.0 | 0.0 | 0.00 | 0.00 | 0.00 | 49 | 1016.7 |
| 20260506083022 | 71 | 342 | 2.0 | 0.0 | 0.00 | 0.00 | 0.00 | 49 | 1016.7 |
| 20260506082955 | 71 | 345 | 2.0 | 3.0 | 0.00 | 0.00 | 0.00 | 51 | 1016.4 |
| 20260506082516 | 71 | 343 | 2.0 | 0.0 | 0.00 | 0.00 | 0.00 | 50 | 1016.6 |
| 20260506082029 | 71 | 67 | 2.0 | 0.0 | 0.00 | 0.00 | 0.00 | 50 | 1016.7 |
| 20260506081955 | 71 | 67 | 2.0 | 3.0 | 0.00 | 0.00 | 0.00 | 50 | 1016.3 |
| 20260506081546 | 70 | 9 | 2.0 | 0.0 | 0.00 | 0.00 | 0.00 | 51 | 1016.7 |
| 20260506081518 | 71 | 5 | 2.0 | 0.0 | 0.00 | 0.00 | 0.00 | 51 | 1016.7 |
| 20260506081031 | 70 | 128 | 2.0 | 0.0 | 0.00 | 0.00 | 0.00 | 53 | 1016.7 |
| 20260506080955 | 70 | 115 | 1.0 | 3.0 | 0.00 | 0.00 | 0.00 | 52 | 1016.4 |
| 20260506080546 | 70 | 79 | 2.0 | 0.0 | 0.00 | 0.00 | 0.00 | 52 | 1016.6 |
| 20260506080127 | 69 | 194 | 2.0 | 0.0 | 0.00 | 0.00 | 0.00 | 55 | 1016.7 |
| 20260506073520 | 68 | 64 | 2.0 | 0.0 | 0.00 | 0.00 | 0.00 | 56 | 1016.7 |
| 20260506073033 | 67 | 21 | 1.0 | 0.0 | 0.00 | 0.00 | 0.00 | 57 | 1016.6 |
| 20260506073008 | 67 | 21 | 1.0 | 0.0 | 0.00 | 0.00 | 0.00 | 57 | 1016.6 |
| 20260506072957 | 67 | 20 | 2.0 | 3.0 | 0.00 | 0.00 | 0.00 | 57 | 1016.5 |
| 20260506072524 | 67 | 120 | 1.0 | 0.0 | 0.00 | 0.00 | 0.00 | 57 | 1016.6 |
| 20260506072013 | 67 | 360 | 1.0 | 0.0 | 0.00 | 0.00 | 0.00 | 59 | 1016.7 |
| 20260506071955 | 67 | 321 | 1.0 | 2.0 | 0.00 | 0.00 | 0.00 | 59 | 1016.5 |
| 20260506071529 | 67 | 304 | 1.0 | 0.0 | 0.00 | 0.00 | 0.00 | 59 | 1016.7 |
| 20260506071507 | 66 | 305 | 2.0 | 0.0 | 0.00 | 0.00 | 0.00 | 59 | 1016.7 |
| 20260506071017 | 67 | 42 | 2.0 | 0.0 | 0.00 | 0.00 | 0.00 | 58 | 1016.8 |
| 20260506070956 | 67 | 42 | 2.0 | 3.0 | 0.00 | 0.00 | 0.00 | 59 | 1016.6 |
| 20260506070529 | 67 | 115 | 2.0 | 0.0 | 0.00 | 0.00 | 0.00 | 60 | 1016.9 |
| 20260506070133 | 66 | 55 | 2.0 | 0.0 | 0.00 | 0.00 | 0.00 | 61 | 1016.7 |
| 20260506062025 | 62 | 69 | 1.0 | 0.0 | 0.00 | 0.00 | 0.00 | 68 | 1017.2 |
| 20260506061955 | 62 | 85 | 0.0 | 2.0 | 0.00 | 0.00 | 0.00 | 69 | 1016.9 |
| 20260506061630 | 61 | 85 | 1.0 | 0.0 | 0.00 | 0.00 | 0.00 | 69 | 1017.2 |
| 20260506061541 | 61 | 85 | 1.0 | 0.0 | 0.00 | 0.00 | 0.00 | 70 | 1017.3 |
| 20260506061052 | 60 | 34 | 1.0 | 0.0 | 0.00 | 0.00 | 0.00 | 72 | 1017.3 |
| 20260506060957 | 60 | 13 | 1.0 | 2.0 | 0.00 | 0.00 | 0.00 | 72 | 1017.0 |
| 20260506060526 | 60 | 355 | 1.0 | 0.0 | 0.00 | 0.00 | 0.00 | 72 | 1017.4 |
| 20260506051031 | 53 | 325 | 2.0 | 0.0 | 0.00 | 0.00 | 0.00 | 84 | 1017.4 |
| 20260506050955 | 53 | 325 | 1.0 | 3.0 | 0.00 | 0.00 | 0.00 | 84 | 1017.0 |
| 20260506050523 | 53 | 325 | 0.0 | 0.0 | 0.00 | 0.00 | 0.00 | 85 | 1017.2 |
| 20260506050145 | 52 | 325 | 0.0 | 0.0 | 0.00 | 0.00 | 0.00 | 86 | 1017.2 |
| 20260506045038 | 51 | 205 | 0.0 | 0.0 | 0.00 | 0.00 | 0.00 | 87 | 1017.1 |
| 20260506044956 | 51 | 205 | 0.0 | 2.0 | 0.00 | 0.00 | 0.00 | 87 | 1016.7 |
| 20260506044615 | 50 | 205 | 0.0 | 0.0 | 0.00 | 0.00 | 0.00 | 87 | 1017.1 |
| 20260506044528 | 51 | 203 | 0.0 | 0.0 | 0.00 | 0.00 | 0.00 | 87 | 1017.1 |
| 20260506044023 | 50 | 189 | 0.0 | 0.0 | 0.00 | 0.00 | 0.00 | 87 | 1017.1 |
| 20260506043528 | 50 | 209 | 0.0 | 0.0 | 0.00 | 0.00 | 0.00 | 87 | 1016.8 |
| 20260506043107 | 49 | 202 | 0.0 | 0.0 | 0.00 | 0.00 | 0.00 | 87 | 1016.8 |
| 20260506043024 | 49 | 202 | 0.0 | 0.0 | 0.00 | 0.00 | 0.00 | 87 | 1016.9 |
| 20260506042956 | 49 | 200 | 0.0 | 0.0 | 0.00 | 0.00 | 0.00 | 87 | 1016.4 |
| 20260506042537 | 49 | 200 | 0.0 | 0.0 | 0.00 | 0.00 | 0.00 | 87 | 1016.8 |
| 20260506042027 | 49 | 173 | 0.0 | 0.0 | 0.00 | 0.00 | 0.00 | 87 | 1016.7 |
| 20260506041612 | 48 | 160 | 0.0 | 0.0 | 0.00 | 0.00 | 0.00 | 87 | 1016.7 |
| 20260506041522 | 48 | 160 | 0.0 | 0.0 | 0.00 | 0.00 | 0.00 | 86 | 1016.9 |
| 20260506041034 | 48 | 160 | 0.0 | 0.0 | 0.00 | 0.00 | 0.00 | 86 | 1016.8 |
| 20260506040957 | 48 | 160 | 0.0 | 1.0 | 0.00 | 0.00 | 0.00 | 86 | 1016.3 |
| 20260506040525 | 48 | 160 | 0.0 | 0.0 | 0.00 | 0.00 | 0.00 | 86 | 1016.6 |
| 20260506040112 | 47 | 160 | 0.0 | 0.0 | 0.00 | 0.00 | 0.00 | 85 | 1016.8 |
| 20260506040038 | 48 | 160 | 0.0 | 0.0 | 0.00 | 0.00 | 0.00 | 85 | 1016.7 |
| 20260506035955 | 48 | 250 | 0.0 | 2.0 | 0.00 | 0.00 | 0.00 | 85 | 1016.3 |
| 20260506035528 | 48 | 42 | 0.0 | 0.0 | 0.00 | 0.00 | 0.00 | 85 | 1016.7 |
| 20260506035021 | 48 | 42 | 1.0 | 0.0 | 0.00 | 0.00 | 0.00 | 85 | 1016.5 |
| 20260506034956 | 48 | 129 | 0.0 | 3.0 | 0.00 | 0.00 | 0.00 | 84 | 1016.3 |
| 20260506034545 | 47 | 126 | 1.0 | 0.0 | 0.00 | 0.00 | 0.00 | 84 | 1016.5 |
| 20260506034526 | 48 | 126 | 1.0 | 0.0 | 0.00 | 0.00 | 0.00 | 84 | 1016.6 |
| 20260506034040 | 48 | 126 | 2.0 | 0.0 | 0.00 | 0.00 | 0.00 | 84 | 1016.4 |
| 20260506033956 | 48 | 126 | 1.0 | 3.0 | 0.00 | 0.00 | 0.00 | 84 | 1016.1 |
| 20260506033552 | 48 | 126 | 1.0 | 0.0 | 0.00 | 0.00 | 0.00 | 83 | 1016.4 |
| 20260506033108 | 48 | 169 | 1.0 | 0.0 | 0.00 | 0.00 | 0.00 | 83 | 1016.4 |
| 20260506033026 | 48 | 169 | 1.0 | 0.0 | 0.00 | 0.00 | 0.00 | 83 | 1016.5 |
| 20260506032956 | 48 | 169 | 1.0 | 3.0 | 0.00 | 0.00 | 0.00 | 83 | 1016.1 |
| 20260506032522 | 49 | 169 | 2.0 | 0.0 | 0.00 | 0.00 | 0.00 | 83 | 1016.5 |
| 20260506032027 | 49 | 169 | 2.0 | 0.0 | 0.00 | 0.00 | 0.00 | 82 | 1016.4 |
| 20260506031957 | 49 | 170 | 3.0 | 3.0 | 0.00 | 0.00 | 0.00 | 82 | 1016.2 |
| 20260506031613 | 48 | 207 | 1.0 | 0.0 | 0.00 | 0.00 | 0.00 | 82 | 1016.3 |
| 20260506031525 | 49 | 207 | 1.0 | 0.0 | 0.00 | 0.00 | 0.00 | 82 | 1016.5 |
| 20260506031050 | 49 | 207 | 0.0 | 0.0 | 0.00 | 0.00 | 0.00 | 82 | 1016.4 |
| 20260506030955 | 49 | 207 | 0.0 | 2.0 | 0.00 | 0.00 | 0.00 | 82 | 1016.0 |
| 20260506030524 | 50 | 207 | 0.0 | 0.0 | 0.00 | 0.00 | 0.00 | 82 | 1016.2 |
| 20260506030049 | 49 | 207 | 0.0 | 0.0 | 0.00 | 0.00 | 0.00 | 82 | 1016.2 |
| 20260506030034 | 50 | 207 | 0.0 | 0.0 | 0.00 | 0.00 | 0.00 | 82 | 1016.2 |
| 20260506025956 | 50 | 207 | 0.0 | 1.0 | 0.00 | 0.00 | 0.00 | 82 | 1015.7 |
| 20260506025528 | 50 | 207 | 0.0 | 0.0 | 0.00 | 0.00 | 0.00 | 81 | 1016.2 |
| 20260506025039 | 50 | 207 | 2.0 | 0.0 | 0.00 | 0.00 | 0.00 | 81 | 1016.1 |
| 20260506024957 | 50 | 207 | 0.0 | 5.0 | 0.00 | 0.00 | 0.00 | 81 | 1015.6 |
| 20260506024554 | 50 | 207 | 4.0 | 0.0 | 0.00 | 0.00 | 0.00 | 81 | 1016.1 |
| 20260506024521 | 50 | 207 | 4.0 | 0.0 | 0.00 | 0.00 | 0.00 | 81 | 1016.1 |
| 20260506024027 | 50 | 213 | 4.0 | 0.0 | 0.00 | 0.00 | 0.00 | 81 | 1015.9 |
| 20260506023957 | 50 | 212 | 3.0 | 5.0 | 0.00 | 0.00 | 0.00 | 81 | 1015.6 |
| 20260506023519 | 50 | 208 | 4.0 | 0.0 | 0.00 | 0.00 | 0.00 | 81 | 1015.9 |
| 20260506023031 | 50 | 210 | 4.0 | 0.0 | 0.00 | 0.00 | 0.00 | 81 | 1016.1 |
| 20260506023010 | 50 | 211 | 4.0 | 0.0 | 0.00 | 0.00 | 0.00 | 81 | 1016.1 |
| 20260506022955 | 50 | 210 | 4.0 | 5.0 | 0.00 | 0.00 | 0.00 | 81 | 1015.8 |
| 20260506022523 | 50 | 219 | 4.0 | 0.0 | 0.00 | 0.00 | 0.00 | 81 | 1015.9 |
| 20260506022020 | 50 | 223 | 5.0 | 0.0 | 0.00 | 0.00 | 0.00 | 81 | 1016.1 |
| 20260506021543 | 50 | 211 | 5.0 | 0.0 | 0.00 | 0.00 | 0.00 | 81 | 1015.9 |
| 20260506021528 | 50 | 208 | 5.0 | 0.0 | 0.00 | 0.00 | 0.00 | 81 | 1016.0 |
| 20260506021024 | 50 | 212 | 5.0 | 0.0 | 0.00 | 0.00 | 0.00 | 81 | 1015.9 |
| 20260506020956 | 50 | 213 | 5.0 | 7.0 | 0.00 | 0.00 | 0.00 | 81 | 1015.7 |
| 20260506020534 | 50 | 223 | 5.0 | 0.0 | 0.00 | 0.00 | 0.00 | 81 | 1016.0 |
| 20260506020044 | 50 | 209 | 5.0 | 0.0 | 0.00 | 0.00 | 0.00 | 81 | 1015.8 |
| 20260506020025 | 50 | 212 | 5.0 | 0.0 | 0.00 | 0.00 | 0.00 | 81 | 1015.9 |
| 20260506015956 | 50 | 220 | 6.0 | 7.0 | 0.00 | 0.00 | 0.00 | 81 | 1015.6 |
| 20260506015558 | 50 | 225 | 4.0 | 0.0 | 0.00 | 0.00 | 0.00 | 81 | 1016.1 |
| 20260506015048 | 50 | 211 | 5.0 | 0.0 | 0.00 | 0.00 | 0.00 | 82 | 1016.1 |
| 20260506014956 | 50 | 216 | 5.0 | 7.0 | 0.00 | 0.00 | 0.00 | 82 | 1015.6 |
| 20260506014609 | 50 | 210 | 5.0 | 0.0 | 0.00 | 0.00 | 0.00 | 82 | 1016.0 |
| 20260506014541 | 50 | 219 | 5.0 | 0.0 | 0.00 | 0.00 | 0.00 | 82 | 1016.0 |
| 20260506014033 | 50 | 221 | 5.0 | 0.0 | 0.00 | 0.00 | 0.00 | 82 | 1016.0 |
| 20260506013958 | 50 | 219 | 6.0 | 8.0 | 0.00 | 0.00 | 0.00 | 82 | 1015.6 |
| 20260506013528 | 50 | 212 | 5.0 | 0.0 | 0.00 | 0.00 | 0.00 | 82 | 1016.0 |
| 20260506013045 | 50 | 219 | 4.0 | 0.0 | 0.00 | 0.00 | 0.00 | 82 | 1015.9 |
| 20260506013029 | 50 | 220 | 4.0 | 0.0 | 0.00 | 0.00 | 0.00 | 82 | 1015.9 |
| 20260506012548 | 50 | 213 | 4.0 | 0.0 | 0.00 | 0.00 | 0.00 | 83 | 1016.0 |
| 20260506012024 | 50 | 219 | 5.0 | 0.0 | 0.00 | 0.00 | 0.00 | 83 | 1016.0 |
| 20260506011956 | 50 | 221 | 5.0 | 7.0 | 0.00 | 0.00 | 0.00 | 83 | 1015.8 |
| 20260506011632 | 49 | 218 | 5.0 | 0.0 | 0.00 | 0.00 | 0.00 | 83 | 1016.0 |
| 20260506011556 | 50 | 221 | 5.0 | 0.0 | 0.00 | 0.00 | 0.00 | 83 | 1016.0 |
| 20260506011049 | 50 | 214 | 5.0 | 0.0 | 0.00 | 0.00 | 0.00 | 83 | 1016.3 |
| 20260506010955 | 50 | 218 | 5.0 | 7.0 | 0.00 | 0.00 | 0.00 | 83 | 1015.8 |
| 20260506010544 | 50 | 218 | 5.0 | 0.0 | 0.00 | 0.00 | 0.00 | 83 | 1016.1 |
| 20260506010137 | 49 | 217 | 5.0 | 0.0 | 0.00 | 0.00 | 0.00 | 83 | 1016.0 |
| 20260506010039 | 50 | 221 | 4.0 | 0.0 | 0.00 | 0.00 | 0.00 | 83 | 1016.1 |
| 20260506005550 | 50 | 221 | 3.0 | 0.0 | 0.00 | 0.00 | 0.00 | 83 | 1016.1 |
| 20260506005044 | 50 | 230 | 3.0 | 0.0 | 0.00 | 0.00 | 0.00 | 83 | 1016.1 |
| 20260506004956 | 50 | 230 | 3.0 | 3.0 | 0.00 | 0.00 | 0.00 | 83 | 1015.9 |
| 20260506004536 | 50 | 230 | 3.0 | 0.0 | 0.00 | 0.00 | 0.00 | 83 | 1016.3 |
| 20260506004505 | 50 | 230 | 3.0 | 0.0 | 0.00 | 0.00 | 0.00 | 83 | 1016.2 |
| 20260506004054 | 50 | 231 | 3.0 | 0.0 | 0.00 | 0.00 | 0.00 | 82 | 1016.2 |
| 20260506003956 | 50 | 231 | 3.0 | 3.0 | 0.00 | 0.00 | 0.00 | 82 | 1015.9 |
| 20260506003526 | 50 | 232 | 2.0 | 0.0 | 0.00 | 0.00 | 0.00 | 82 | 1016.2 |
| 20260506003121 | 50 | 232 | 3.0 | 0.0 | 0.00 | 0.00 | 0.00 | 82 | 1016.2 |
| 20260506003023 | 51 | 232 | 3.0 | 0.0 | 0.00 | 0.00 | 0.00 | 82 | 1016.4 |
| 20260506002957 | 51 | 232 | 2.0 | 5.0 | 0.00 | 0.00 | 0.00 | 82 | 1015.9 |
| 20260506002534 | 51 | 232 | 3.0 | 0.0 | 0.00 | 0.00 | 0.00 | 82 | 1016.3 |
| 20260506002023 | 51 | 250 | 3.0 | 0.0 | 0.00 | 0.00 | 0.00 | 82 | 1016.2 |
| 20260506001956 | 51 | 250 | 2.0 | 3.0 | 0.00 | 0.00 | 0.00 | 82 | 1015.8 |
| 20260506001620 | 51 | 250 | 2.0 | 0.0 | 0.00 | 0.00 | 0.00 | 82 | 1016.2 |
| 20260506001552 | 51 | 250 | 3.0 | 0.0 | 0.00 | 0.00 | 0.00 | 82 | 1016.2 |
| 20260506001029 | 51 | 250 | 3.0 | 0.0 | 0.00 | 0.00 | 0.00 | 82 | 1016.2 |
| 20260506000957 | 51 | 250 | 2.0 | 3.0 | 0.00 | 0.00 | 0.00 | 82 | 1015.9 |
| 20260506000545 | 51 | 250 | 3.0 | 0.0 | 0.00 | 0.00 | 0.00 | 82 | 1016.1 |
| 20260506000042 | 51 | 250 | 3.0 | 0.0 | 0.00 | 0.00 | 0.00 | 81 | 1016.1 |
| 20260506000021 | 51 | 250 | 3.0 | 0.0 | 0.00 | 0.00 | 0.00 | 81 | 1016.1 |
| 20260505235957 | 51 | 250 | 3.0 | 3.0 | 0.00 | 0.00 | 0.00 | 81 | 1015.6 |
| 20260505235530 | 51 | 248 | 3.0 | 0.0 | 0.00 | 0.00 | 0.00 | 81 | 1016.1 |
| 20260505235028 | 51 | 243 | 3.0 | 0.0 | 0.00 | 0.00 | 0.00 | 81 | 1016.2 |
| 20260505234957 | 51 | 243 | 4.0 | 5.0 | 0.00 | 0.00 | 0.00 | 81 | 1015.6 |
| 20260505234556 | 51 | 233 | 3.0 | 0.0 | 0.00 | 0.00 | 0.00 | 81 | 1016.0 |
| 20260505234534 | 51 | 233 | 3.0 | 0.0 | 0.00 | 0.00 | 0.00 | 81 | 1016.0 |
| 20260505234051 | 52 | 232 | 3.0 | 0.0 | 0.00 | 0.00 | 0.00 | 81 | 1016.0 |
| 20260505233957 | 51 | 232 | 3.0 | 5.0 | 0.00 | 0.00 | 0.00 | 81 | 1015.7 |
| 20260505233527 | 52 | 227 | 3.0 | 0.0 | 0.00 | 0.00 | 0.00 | 81 | 1016.1 |
| 20260505233035 | 52 | 243 | 4.0 | 0.0 | 0.00 | 0.00 | 0.00 | 82 | 1016.2 |
| 20260505233012 | 51 | 243 | 4.0 | 0.0 | 0.00 | 0.00 | 0.00 | 82 | 1016.2 |
| 20260505232957 | 52 | 243 | 3.0 | 5.0 | 0.00 | 0.00 | 0.00 | 82 | 1015.7 |
| 20260505232528 | 52 | 247 | 5.0 | 0.0 | 0.00 | 0.00 | 0.00 | 82 | 1016.0 |
| 20260505232024 | 52 | 241 | 4.0 | 0.0 | 0.00 | 0.00 | 0.00 | 82 | 1016.0 |
| 20260505231956 | 52 | 242 | 5.0 | 6.0 | 0.00 | 0.00 | 0.00 | 82 | 1015.7 |
| 20260505231540 | 52 | 243 | 3.0 | 0.0 | 0.00 | 0.00 | 0.00 | 82 | 1016.0 |
| 20260505231521 | 51 | 244 | 3.0 | 0.0 | 0.00 | 0.00 | 0.00 | 82 | 1016.0 |
| 20260505231030 | 52 | 231 | 2.0 | 0.0 | 0.00 | 0.00 | 0.00 | 82 | 1016.0 |
| 20260505230956 | 52 | 228 | 2.0 | 3.0 | 0.00 | 0.00 | 0.00 | 82 | 1015.8 |
| 20260505230526 | 52 | 224 | 2.0 | 0.0 | 0.00 | 0.00 | 0.00 | 82 | 1016.0 |
| 20260505230058 | 51 | 223 | 2.0 | 0.0 | 0.00 | 0.00 | 0.00 | 82 | 1016.1 |
| 20260505230033 | 52 | 223 | 2.0 | 0.0 | 0.00 | 0.00 | 0.00 | 82 | 1016.2 |
| 20260505225956 | 52 | 223 | 2.0 | 3.0 | 0.00 | 0.00 | 0.00 | 82 | 1015.8 |
| 20260505225532 | 52 | 222 | 2.0 | 0.0 | 0.00 | 0.00 | 0.00 | 82 | 1016.2 |
| 20260505225024 | 52 | 222 | 4.0 | 0.0 | 0.00 | 0.00 | 0.00 | 83 | 1016.2 |
| 20260505224957 | 52 | 222 | 3.0 | 6.0 | 0.00 | 0.00 | 0.00 | 83 | 1015.9 |
| 20260505224600 | 51 | 222 | 4.0 | 0.0 | 0.00 | 0.00 | 0.00 | 83 | 1016.3 |
| 20260505224519 | 52 | 223 | 5.0 | 0.0 | 0.00 | 0.00 | 0.00 | 83 | 1016.2 |
| 20260505224052 | 52 | 226 | 5.0 | 0.0 | 0.00 | 0.00 | 0.00 | 84 | 1016.3 |
| 20260505223957 | 52 | 225 | 5.0 | 6.0 | 0.00 | 0.00 | 0.00 | 84 | 1015.8 |
| 20260505223530 | 51 | 227 | 5.0 | 0.0 | 0.00 | 0.00 | 0.00 | 84 | 1016.2 |
| 20260505223150 | 51 | 223 | 4.0 | 0.0 | 0.00 | 0.00 | 0.00 | 84 | 1016.1 |
| 20260505223043 | 51 | 221 | 4.0 | 0.0 | 0.00 | 0.00 | 0.00 | 84 | 1016.3 |
| 20260505222957 | 51 | 219 | 5.0 | 6.0 | 0.00 | 0.00 | 0.00 | 84 | 1015.9 |
| 20260505222553 | 51 | 221 | 4.0 | 0.0 | 0.00 | 0.00 | 0.00 | 84 | 1016.3 |
| 20260505222021 | 51 | 223 | 4.0 | 0.0 | 0.00 | 0.00 | 0.00 | 83 | 1016.4 |
| 20260505221610 | 51 | 210 | 3.0 | 0.0 | 0.00 | 0.00 | 0.00 | 83 | 1016.4 |
| 20260505221555 | 51 | 210 | 3.0 | 0.0 | 0.00 | 0.00 | 0.00 | 83 | 1016.6 |
| 20260505221030 | 52 | 211 | 3.0 | 0.0 | 0.00 | 0.00 | 0.00 | 83 | 1016.4 |
| 20260505220958 | 52 | 211 | 3.0 | 3.0 | 0.00 | 0.00 | 0.00 | 83 | 1016.1 |
| 20260505220521 | 52 | 211 | 3.0 | 0.0 | 0.00 | 0.00 | 0.00 | 82 | 1016.6 |
| 20260505220055 | 51 | 211 | 4.0 | 0.0 | 0.00 | 0.00 | 0.00 | 82 | 1016.3 |
| 20260505220032 | 52 | 211 | 4.0 | 0.0 | 0.00 | 0.00 | 0.00 | 82 | 1016.3 |
| 20260505215956 | 52 | 211 | 3.0 | 5.0 | 0.00 | 0.00 | 0.00 | 82 | 1016.0 |
| 20260505215529 | 52 | 211 | 4.0 | 0.0 | 0.00 | 0.00 | 0.00 | 82 | 1016.3 |
| 20260505215015 | 52 | 211 | 3.0 | 0.0 | 0.00 | 0.00 | 0.00 | 81 | 1016.4 |
| 20260505214956 | 52 | 211 | 3.0 | 5.0 | 0.00 | 0.00 | 0.00 | 81 | 1015.9 |
| 20260505214600 | 52 | 224 | 3.0 | 0.0 | 0.00 | 0.00 | 0.00 | 81 | 1016.4 |
| 20260505214533 | 52 | 224 | 3.0 | 0.0 | 0.00 | 0.00 | 0.00 | 81 | 1016.2 |
| 20260505214027 | 53 | 225 | 3.0 | 0.0 | 0.00 | 0.00 | 0.00 | 81 | 1016.3 |
| 20260505213957 | 53 | 225 | 2.0 | 3.0 | 0.00 | 0.00 | 0.00 | 81 | 1015.9 |
| 20260505213516 | 53 | 225 | 2.0 | 0.0 | 0.00 | 0.00 | 0.00 | 81 | 1016.2 |
| 20260505213106 | 53 | 225 | 2.0 | 0.0 | 0.00 | 0.00 | 0.00 | 81 | 1016.3 |
| 20260505213052 | 53 | 225 | 2.0 | 0.0 | 0.00 | 0.00 | 0.00 | 81 | 1016.2 |
| 20260505212957 | 53 | 225 | 3.0 | 3.0 | 0.00 | 0.00 | 0.00 | 81 | 1015.9 |
| 20260505212529 | 53 | 227 | 1.0 | 0.0 | 0.00 | 0.00 | 0.00 | 81 | 1016.2 |
| 20260505212043 | 53 | 227 | 1.0 | 0.0 | 0.00 | 0.00 | 0.00 | 81 | 1016.1 |
| 20260505211957 | 53 | 227 | 1.0 | 3.0 | 0.00 | 0.00 | 0.00 | 81 | 1015.8 |
| 20260505211539 | 54 | 227 | 2.0 | 0.0 | 0.00 | 0.00 | 0.00 | 81 | 1016.1 |
| 20260505211510 | 53 | 227 | 2.0 | 0.0 | 0.00 | 0.00 | 0.00 | 81 | 1016.2 |
| 20260505211030 | 54 | 227 | 3.0 | 0.0 | 0.00 | 0.00 | 0.00 | 81 | 1016.3 |
| 20260505210957 | 53 | 227 | 3.0 | 5.0 | 0.00 | 0.00 | 0.00 | 81 | 1015.8 |
| 20260505210524 | 53 | 228 | 4.0 | 0.0 | 0.00 | 0.00 | 0.00 | 81 | 1016.3 |
| 20260505210037 | 54 | 230 | 4.0 | 0.0 | 0.00 | 0.00 | 0.00 | 81 | 1016.2 |
| 20260505210013 | 53 | 231 | 4.0 | 0.0 | 0.00 | 0.00 | 0.00 | 81 | 1016.3 |
| 20260505205956 | 54 | 231 | 5.0 | 5.0 | 0.00 | 0.00 | 0.00 | 81 | 1015.9 |
| 20260505205528 | 54 | 215 | 3.0 | 0.0 | 0.00 | 0.00 | 0.00 | 81 | 1016.3 |
| 20260505205021 | 54 | 204 | 4.0 | 0.0 | 0.00 | 0.00 | 0.00 | 80 | 1016.2 |
| 20260505204957 | 54 | 206 | 2.0 | 7.0 | 0.00 | 0.00 | 0.00 | 80 | 1015.8 |
| 20260505204536 | 54 | 208 | 4.0 | 0.0 | 0.00 | 0.00 | 0.00 | 80 | 1016.2 |
| 20260505204513 | 54 | 208 | 5.0 | 0.0 | 0.00 | 0.00 | 0.00 | 80 | 1016.1 |
| 20260505204048 | 54 | 174 | 5.0 | 0.0 | 0.00 | 0.00 | 0.00 | 81 | 1016.1 |
| 20260505203520 | 54 | 238 | 5.0 | 0.0 | 0.00 | 0.00 | 0.00 | 80 | 1016.1 |
| 20260505203124 | 54 | 234 | 5.0 | 0.0 | 0.00 | 0.00 | 0.00 | 80 | 1015.9 |
| 20260505203050 | 54 | 240 | 5.0 | 0.0 | 0.00 | 0.00 | 0.00 | 80 | 1016.2 |
| 20260505202958 | 54 | 242 | 5.0 | 7.0 | 0.00 | 0.00 | 0.00 | 80 | 1015.6 |
| 20260505202527 | 55 | 248 | 3.0 | 0.0 | 0.00 | 0.00 | 0.00 | 80 | 1016.0 |
| 20260505202040 | 55 | 228 | 3.0 | 0.0 | 0.00 | 0.00 | 0.00 | 79 | 1016.1 |
| 20260505201957 | 55 | 218 | 2.0 | 3.0 | 0.00 | 0.00 | 0.00 | 79 | 1015.9 |
| 20260505201609 | 55 | 200 | 3.0 | 0.0 | 0.00 | 0.00 | 0.00 | 79 | 1016.3 |
| 20260505201530 | 55 | 200 | 3.0 | 0.0 | 0.00 | 0.00 | 0.00 | 79 | 1016.0 |
| 20260505201045 | 56 | 190 | 3.0 | 0.0 | 0.00 | 0.00 | 0.00 | 77 | 1016.1 |
| 20260505200958 | 56 | 190 | 2.0 | 3.0 | 0.00 | 0.00 | 0.00 | 77 | 1015.7 |
| 20260505200536 | 56 | 190 | 3.0 | 0.0 | 0.00 | 0.00 | 0.00 | 77 | 1015.9 |
| 20260505200052 | 56 | 190 | 3.0 | 0.0 | 0.00 | 0.00 | 0.00 | 76 | 1015.8 |
| 20260505200028 | 56 | 190 | 3.0 | 0.0 | 0.00 | 0.00 | 0.00 | 76 | 1016.0 |
| 20260505195957 | 56 | 190 | 2.0 | 5.0 | 0.00 | 0.00 | 0.00 | 76 | 1015.7 |
| 20260505195525 | 57 | 198 | 2.0 | 0.0 | 0.00 | 0.00 | 0.00 | 76 | 1016.1 |
| 20260505195038 | 57 | 257 | 1.0 | 0.0 | 0.00 | 0.00 | 0.00 | 75 | 1016.0 |
| 20260505194958 | 57 | 257 | 1.0 | 3.0 | 0.00 | 0.00 | 0.00 | 75 | 1015.5 |
| 20260505194553 | 57 | 257 | 1.0 | 0.0 | 0.00 | 0.00 | 0.00 | 75 | 1015.8 |
| 20260505194524 | 57 | 257 | 1.0 | 0.0 | 0.00 | 0.00 | 0.00 | 75 | 1015.8 |
| 20260505194022 | 57 | 257 | 1.0 | 0.0 | 0.00 | 0.00 | 0.00 | 74 | 1015.9 |
| 20260505193959 | 57 | 257 | 1.0 | 3.0 | 0.00 | 0.00 | 0.00 | 73 | 1015.5 |
| 20260505193533 | 58 | 257 | 1.0 | 0.0 | 0.00 | 0.00 | 0.00 | 73 | 1015.9 |
| 20260505193058 | 57 | 258 | 2.0 | 0.0 | 0.00 | 0.00 | 0.00 | 72 | 1015.8 |
| 20260505193023 | 58 | 258 | 2.0 | 0.0 | 0.00 | 0.00 | 0.00 | 72 | 1015.8 |
| 20260505192957 | 58 | 258 | 1.0 | 3.0 | 0.00 | 0.00 | 0.00 | 72 | 1015.5 |
| 20260505192519 | 58 | 258 | 3.0 | 0.0 | 0.00 | 0.00 | 0.00 | 72 | 1015.7 |
| 20260505192034 | 58 | 258 | 3.0 | 0.0 | 0.00 | 0.00 | 0.00 | 71 | 1015.6 |
| 20260505191957 | 58 | 258 | 2.0 | 3.0 | 0.00 | 0.00 | 0.00 | 71 | 1015.1 |
| 20260505191630 | 58 | 258 | 3.0 | 0.0 | 0.00 | 0.00 | 0.00 | 71 | 1015.4 |
| 20260505191524 | 59 | 258 | 3.0 | 0.0 | 0.00 | 0.00 | 0.00 | 71 | 1015.4 |
| 20260505191025 | 59 | 259 | 2.0 | 0.0 | 0.00 | 0.00 | 0.00 | 69 | 1015.3 |
| 20260505190957 | 59 | 259 | 2.0 | 3.0 | 0.00 | 0.00 | 0.00 | 69 | 1014.9 |
| 20260505190531 | 59 | 259 | 3.0 | 0.0 | 0.00 | 0.00 | 0.00 | 69 | 1015.3 |
| 20260505190113 | 59 | 259 | 4.0 | 0.0 | 0.00 | 0.00 | 0.00 | 68 | 1015.0 |
| 20260505190027 | 60 | 256 | 4.0 | 0.0 | 0.00 | 0.00 | 0.00 | 67 | 1015.3 |
| 20260505185958 | 60 | 255 | 3.0 | 5.0 | 0.00 | 0.00 | 0.00 | 67 | 1014.6 |
| 20260505185541 | 61 | 242 | 3.0 | 0.0 | 0.00 | 0.00 | 0.00 | 66 | 1014.9 |
| 20260505185031 | 61 | 264 | 2.0 | 0.0 | 0.00 | 0.00 | 0.00 | 65 | 1014.8 |
| 20260505184957 | 61 | 264 | 2.0 | 3.0 | 0.00 | 0.00 | 0.00 | 64 | 1014.5 |
| 20260505184627 | 61 | 264 | 2.0 | 0.0 | 0.00 | 0.00 | 0.00 | 63 | 1014.7 |
| 20260505184551 | 62 | 264 | 2.0 | 0.0 | 0.00 | 0.00 | 0.00 | 63 | 1014.7 |
| 20260505184027 | 63 | 348 | 1.0 | 0.0 | 0.00 | 0.00 | 0.00 | 61 | 1014.7 |
| 20260505183957 | 63 | 348 | 1.0 | 3.0 | 0.00 | 0.00 | 0.00 | 61 | 1014.3 |
| 20260505183542 | 63 | 67 | 2.0 | 0.0 | 0.00 | 0.00 | 0.00 | 60 | 1014.8 |
| 20260505183048 | 63 | 67 | 2.0 | 0.0 | 0.00 | 0.00 | 0.00 | 58 | 1014.6 |
| 20260505183029 | 63 | 67 | 2.0 | 0.0 | 0.00 | 0.00 | 0.00 | 58 | 1014.7 |
| 20260505182957 | 63 | 67 | 2.0 | 3.0 | 0.00 | 0.00 | 0.00 | 57 | 1014.4 |
| 20260505182525 | 63 | 44 | 2.0 | 0.0 | 0.00 | 0.00 | 0.00 | 57 | 1014.8 |
| 20260505182041 | 64 | 87 | 2.0 | 0.0 | 0.00 | 0.00 | 0.00 | 58 | 1014.5 |
| 20260505181958 | 64 | 87 | 1.0 | 3.0 | 0.00 | 0.00 | 0.00 | 58 | 1014.2 |
| 20260505181634 | 63 | 87 | 2.0 | 0.0 | 0.00 | 0.00 | 0.00 | 57 | 1014.5 |
| 20260505181550 | 64 | 87 | 2.0 | 0.0 | 0.00 | 0.00 | 0.00 | 57 | 1014.3 |
| 20260505181028 | 64 | 84 | 1.0 | 0.0 | 0.00 | 0.00 | 0.00 | 56 | 1014.3 |
| 20260505180958 | 64 | 77 | 1.0 | 3.0 | 0.00 | 0.00 | 0.00 | 56 | 1013.9 |
| 20260505180531 | 64 | 186 | 1.0 | 0.0 | 0.00 | 0.00 | 0.00 | 56 | 1014.2 |
| 20260505180118 | 64 | 186 | 2.0 | 0.0 | 0.00 | 0.00 | 0.00 | 55 | 1014.3 |
| 20260505180030 | 64 | 175 | 3.0 | 0.0 | 0.00 | 0.00 | 0.00 | 55 | 1014.3 |
| 20260505175957 | 64 | 175 | 1.0 | 7.0 | 0.00 | 0.00 | 0.00 | 55 | 1013.8 |
| 20260505175521 | 65 | 113 | 5.0 | 0.0 | 0.00 | 0.00 | 0.00 | 55 | 1014.2 |
| 20260505175033 | 65 | 108 | 6.0 | 0.0 | 0.00 | 0.00 | 0.00 | 54 | 1014.1 |
| 20260505174958 | 65 | 103 | 4.0 | 9.0 | 0.00 | 0.00 | 0.00 | 54 | 1013.8 |
| 20260505174624 | 64 | 92 | 7.0 | 0.0 | 0.00 | 0.00 | 0.00 | 53 | 1013.9 |
| 20260505174530 | 65 | 91 | 6.0 | 0.0 | 0.00 | 0.00 | 0.00 | 53 | 1014.1 |
| 20260505174019 | 65 | 106 | 7.0 | 0.0 | 0.00 | 0.00 | 0.00 | 53 | 1014.0 |
| 20260505173957 | 65 | 103 | 6.0 | 10.0 | 0.00 | 0.00 | 0.00 | 53 | 1013.7 |
| 20260505173532 | 66 | 113 | 5.0 | 0.0 | 0.00 | 0.00 | 0.00 | 52 | 1014.0 |
| 20260505173032 | 66 | 101 | 4.0 | 0.0 | 0.00 | 0.00 | 0.00 | 52 | 1013.9 |
| 20260505173003 | 66 | 94 | 4.0 | 0.0 | 0.00 | 0.00 | 0.00 | 52 | 1014.1 |
| 20260505172957 | 66 | 108 | 4.0 | 8.0 | 0.00 | 0.00 | 0.00 | 52 | 1013.6 |
| 20260505172522 | 66 | 122 | 6.0 | 0.0 | 0.00 | 0.00 | 0.00 | 50 | 1014.1 |
| 20260505172030 | 67 | 155 | 8.0 | 0.0 | 0.00 | 0.00 | 0.00 | 49 | 1014.1 |
| 20260505171957 | 67 | 141 | 6.0 | 14.0 | 0.00 | 0.00 | 0.00 | 49 | 1013.7 |
| 20260505171627 | 67 | 126 | 10.0 | 0.0 | 0.00 | 0.00 | 0.00 | 48 | 1013.9 |
| 20260505171521 | 67 | 113 | 10.0 | 0.0 | 0.00 | 0.00 | 0.00 | 48 | 1014.0 |
| 20260505171032 | 68 | 116 | 11.0 | 0.0 | 0.00 | 0.00 | 0.00 | 47 | 1013.7 |
| 20260505170958 | 68 | 108 | 11.0 | 17.0 | 0.00 | 0.00 | 0.00 | 46 | 1013.4 |
| 20260505170530 | 68 | 116 | 12.0 | 0.0 | 0.00 | 0.00 | 0.00 | 46 | 1013.7 |
| 20260505170137 | 68 | 115 | 12.0 | 0.0 | 0.00 | 0.00 | 0.00 | 45 | 1013.6 |
| 20260505170045 | 69 | 126 | 12.0 | 0.0 | 0.00 | 0.00 | 0.00 | 45 | 1013.8 |
| 20260505165541 | 69 | 113 | 13.0 | 0.0 | 0.00 | 0.00 | 0.00 | 45 | 1013.7 |
| 20260505165059 | 69 | 128 | 13.0 | 0.0 | 0.00 | 0.00 | 0.00 | 45 | 1013.7 |
| 20260505164958 | 69 | 124 | 14.0 | 20.0 | 0.00 | 0.00 | 0.00 | 45 | 1013.3 |
| 20260505164607 | 69 | 140 | 13.0 | 0.0 | 0.00 | 0.00 | 0.00 | 44 | 1013.3 |
| 20260505164532 | 70 | 137 | 13.0 | 0.0 | 0.00 | 0.00 | 0.00 | 44 | 1013.4 |
| 20260505164020 | 71 | 116 | 13.0 | 0.0 | 0.00 | 0.00 | 0.00 | 43 | 1013.5 |
| 20260505163958 | 71 | 103 | 15.0 | 20.0 | 0.00 | 0.00 | 0.00 | 43 | 1013.1 |
| 20260505163556 | 71 | 85 | 14.0 | 0.0 | 0.00 | 0.00 | 0.00 | 43 | 1013.7 |
| 20260505163046 | 72 | 92 | 14.0 | 0.0 | 0.00 | 0.00 | 0.00 | 43 | 1013.5 |
| 20260505163025 | 72 | 84 | 14.0 | 0.0 | 0.00 | 0.00 | 0.00 | 43 | 1013.5 |
| 20260505162520 | 73 | 101 | 12.0 | 0.0 | 0.00 | 0.00 | 0.00 | 44 | 1013.6 |
| 20260505162050 | 73 | 90 | 12.0 | 0.0 | 0.00 | 0.00 | 0.00 | 45 | 1013.4 |
| 20260505161958 | 73 | 96 | 11.0 | 16.0 | 0.00 | 0.00 | 0.00 | 45 | 1013.0 |
| 20260505161629 | 73 | 81 | 12.0 | 0.0 | 0.00 | 0.00 | 0.00 | 44 | 1013.3 |
| 20260505161525 | 73 | 88 | 12.0 | 0.0 | 0.00 | 0.00 | 0.00 | 44 | 1013.4 |
| 20260505161039 | 73 | 107 | 12.0 | 0.0 | 0.00 | 0.00 | 0.00 | 45 | 1013.2 |
| 20260505160958 | 73 | 99 | 12.0 | 16.0 | 0.00 | 0.00 | 0.00 | 45 | 1012.8 |
| 20260505160527 | 74 | 97 | 12.0 | 0.0 | 0.00 | 0.00 | 0.00 | 45 | 1013.2 |
| 20260505160125 | 73 | 96 | 13.0 | 0.0 | 0.00 | 0.00 | 0.00 | 44 | 1013.1 |
| 20260505153059 | 78 | 89 | 9.0 | 0.0 | 0.00 | 0.00 | 0.00 | 46 | 1013.1 |
| 20260505153010 | 77 | 99 | 9.0 | 0.0 | 0.00 | 0.00 | 0.00 | 46 | 1013.2 |
| 20260505152957 | 78 | 94 | 8.0 | 12.0 | 0.00 | 0.00 | 0.00 | 46 | 1012.9 |
| 20260505152531 | 78 | 79 | 9.0 | 0.0 | 0.00 | 0.00 | 0.00 | 46 | 1013.2 |
| 20260505152044 | 79 | 84 | 8.0 | 0.0 | 0.00 | 0.00 | 0.00 | 45 | 1013.3 |
| 20260505151619 | 78 | 74 | 7.0 | 0.0 | 0.00 | 0.00 | 0.00 | 44 | 1013.3 |
| 20260505151520 | 79 | 82 | 7.0 | 0.0 | 0.00 | 0.00 | 0.00 | 45 | 1013.2 |
| 20260505151035 | 80 | 105 | 7.0 | 0.0 | 0.00 | 0.00 | 0.00 | 44 | 1013.2 |
| 20260505150958 | 80 | 94 | 7.0 | 10.0 | 0.00 | 0.00 | 0.00 | 45 | 1012.9 |
| 20260505150521 | 80 | 110 | 7.0 | 0.0 | 0.00 | 0.00 | 0.00 | 46 | 1013.2 |
| 20260505150119 | 80 | 100 | 8.0 | 0.0 | 0.00 | 0.00 | 0.00 | 45 | 1013.3 |